Location: Star Dogged Moon Observatory
(29.7756°N, 82.0783°W)
Time: 06:41:06
(UTC-04:00)

ARGOS - Visible Passes

Search period start: 24 July 2014 00:00
Search period end: 03 August 2014 00:00
Orbit: 821 x 835 km, 98.8° (Epoch: 23 July)

Date Brightness Start Highest point End Pass type
(mag) Time Alt. Az. Time Alt. Az. Time Alt. Az.
24 Jul 4.9 00:00:48 25° WNW 00:00:48 25° WNW 00:04:10 10° NW visible
24 Jul 4.7 22:00:41 18° ENE 22:01:21 18° ENE 22:04:54 10° NNE visible
24 Jul 4.3 23:42:12 38° WNW 23:42:12 38° WNW 23:46:15 10° NNW visible
25 Jul 5.1 21:42:05 11° ENE 21:43:10 12° ENE 21:44:59 10° NE visible
25 Jul 3.6 23:23:37 57° NW 23:23:37 57° NW 23:28:04 10° NNW visible
26 Jul 3.3 23:05:02 67° NNE 23:05:02 67° NNE 23:09:43 10° N visible
27 Jul 3.5 22:46:26 50° ENE 22:46:26 50° ENE 22:51:10 10° N visible
28 Jul 5.7 00:27:58 13° WNW 00:27:58 13° WNW 00:29:15 10° WNW visible
28 Jul 4.0 22:27:51 33° ENE 22:27:51 33° ENE 22:32:27 10° N visible
29 Jul 5.2 00:09:23 20° WNW 00:09:23 20° WNW 00:12:02 10° NW visible
29 Jul 4.5 22:09:16 22° ENE 22:09:27 22° ENE 22:13:28 10° NNE visible
29 Jul 4.7 23:50:48 30° WNW 23:50:48 30° WNW 23:54:16 10° NNW visible
30 Jul 4.9 21:50:42 14° ENE 21:51:15 14° ENE 21:54:02 10° NE visible
30 Jul 4.1 23:32:13 44° NW 23:32:13 44° NW 23:36:11 10° NNW visible
31 Jul 3.6 23:13:39 58° NNW 23:13:39 58° NNW 23:17:54 10° NNW visible
01 Aug 3.5 22:55:04 54° NNE 22:55:04 54° NNE 22:59:27 10° N visible
02 Aug 3.9 22:36:29 38° NE 22:36:29 38° NE 22:40:49 10° N visible
